Weather History for Knox, IN

Change the Weather History Date:

Thursday, February 28, 2013

  Actual Average (KVPZ) Record (KVPZ)
Temperature  
Mean Temperature 34 °F 32 °F  
Max Temperature 37 °F 40 °F 54 °F (2000)
Min Temperature 31 °F 24 °F -3 °F (2014)
Degree Days  
Heating Degree Days 31 33  
Month to date heating degree days 1049  
Since 1 July heating degree days 4732  
Cooling Degree Days 0 0  
Month to date cooling degree days 0  
Year to date cooling degree days 0  
Moisture  
Dew Point 32 °F    
Average Humidity 96    
Maximum Humidity 100    
Minimum Humidity 87    
Precipitation  
Precipitation 0.00 in 0.05 in 0.21 in (2012)
Month to date precipitation 1.42  
Year to date precipitation 3.17  
Sea Level Pressure  
Sea Level Pressure 29.84 in    
Wind  
Wind Speed 10 mph (NNW)    
Max Wind Speed 21 mph    
Max Gust Speed 26 mph    
Visibility 8 miles    
Events      
T = Trace of Precipitation, MM = Missing Value Source: NWS Daily Summary

Daily Weather History Graph

Daily Weather History Graph

Search for Another Location

Airport:

Trip Planner

Search our weather history database for the weather conditions in past years. The results will help you decide how hot, cold, wet, or windy it might be!

Date:

Astronomy

Feb. 28, 2013 Rise Set
Actual Time 6:22 AM CST 5:36 PM CST
Civil Twilight 5:54 AM CST 6:04 PM CST
Nautical Twilight 5:22 AM CST 6:36 PM CST
Astronomical Twilight 4:50 AM CST 7:08 PM CST
Moon 9:06 PM CST (2/28) 7:29 AM CST (2/28)
Length of Visible Light 12h 09m
Length of Day
11h 14m
Waning Gibbous, 90% of the Moon is Illuminated
Feb 28
Waning Gibbous
Mar 4
Last Quarter
Mar 11
New
Mar 19
First Quarter
Mar 27
Full

Hourly Weather History & Observations

Time (CST) Temp. Windchill Dew Point Humidity Pressure Visibility Wind Dir Wind Speed Gust Speed Precip Events Conditions
12:15 AM 32.4 °F 24.6 °F 32.4 °F 100% 29.63 in 4.0 mi WNW 9.2 mph - N/A   Overcast
12:55 AM 32.2 °F 25.0 °F 32.4 °F 100% 29.64 in 3.0 mi WNW 8.1 mph - N/A   Overcast
1:15 AM 32.2 °F 25.0 °F 32.4 °F 100% 29.65 in 3.0 mi WNW 8.1 mph - N/A   Overcast
1:35 AM 32.2 °F 24.4 °F 32.4 °F 100% 29.65 in 5.0 mi WNW 9.2 mph - N/A   Overcast
1:55 AM 32.5 °F 24.8 °F 32.5 °F 100% 29.65 in 5.0 mi WNW 9.2 mph - N/A   Overcast
2:15 AM 32.5 °F 26.2 °F 32.5 °F 100% 29.65 in 7.0 mi NW 6.9 mph - N/A   Overcast
2:35 AM 32.5 °F 26.2 °F 32.5 °F 100% 29.65 in 4.0 mi WNW 6.9 mph - N/A   Overcast
2:55 AM 32.4 °F 26.0 °F 32.5 °F 100% 29.66 in 4.0 mi WNW 6.9 mph - N/A   Overcast
3:15 AM 32.4 °F 26.0 °F 32.5 °F 100% 29.66 in 3.0 mi NW 6.9 mph - N/A   Overcast
3:35 AM 32.2 °F 25.8 °F 32.4 °F 100% 29.67 in 4.0 mi NW 6.9 mph - N/A   Overcast
3:55 AM 32.2 °F 26.7 °F 32.2 °F 100% 29.68 in 3.0 mi NW 5.8 mph - N/A   Overcast
4:15 AM 32.0 °F 26.4 °F 32.2 °F 100% 29.69 in 4.0 mi NW 5.8 mph - N/A   Overcast
4:35 AM 32.2 °F 25.8 °F 32.2 °F 100% 29.69 in 4.0 mi NW 6.9 mph - N/A   Overcast
4:55 AM 32.2 °F 25.8 °F 32.2 °F 100% 29.70 in 4.0 mi NW 6.9 mph - N/A   Overcast
5:15 AM 32.2 °F 26.7 °F 32.4 °F 100% 29.71 in 7.0 mi NW 5.8 mph - N/A   Overcast
5:35 AM 32.4 °F 26.0 °F 32.5 °F 100% 29.71 in 4.0 mi NNW 6.9 mph - N/A   Overcast
6:15 AM 32.5 °F 24.8 °F 32.7 °F 100% 29.73 in 10.0 mi NW 9.2 mph - N/A   Overcast
6:35 AM - - - N/A% 29.73 in 7.0 mi NW 9.2 mph - N/A   Overcast
6:55 AM - - - N/A% 29.74 in 10.0 mi NNW 9.2 mph - N/A   Overcast
7:15 AM 32.9 °F 25.9 °F 32.9 °F 100% 29.75 in 10.0 mi NW 8.1 mph - N/A   Overcast
7:35 AM 32.9 °F 24.7 °F 33.1 °F 100% 29.76 in 10.0 mi NW 10.4 mph - N/A   Overcast
7:55 AM 32.9 °F 25.9 °F 33.1 °F 100% 29.77 in 10.0 mi NW 8.1 mph - N/A   Overcast
8:15 AM 33.1 °F 25.5 °F 33.3 °F 100% 29.78 in 10.0 mi NNW 9.2 mph - N/A   Overcast
8:35 AM 33.3 °F 25.7 °F 33.4 °F 100% 29.79 in 10.0 mi NNW 9.2 mph - N/A   Overcast
9:15 AM 34.0 °F 27.2 °F 33.8 °F 99% 29.79 in 10.0 mi NNW 8.1 mph - N/A   Overcast
9:35 AM 34.3 °F 27.0 °F 33.6 °F 97% 29.80 in 10.0 mi NNW 9.2 mph - N/A   Overcast
9:55 AM 35.1 °F 27.4 °F 33.8 °F 95% 29.81 in 10.0 mi NNW 10.4 mph - N/A   Overcast
10:15 AM 35.6 °F 27.5 °F 33.8 °F 93% 29.82 in 10.0 mi NNW 11.5 mph - N/A   Overcast
10:35 AM 35.6 °F 27.5 °F 33.4 °F 92% 29.82 in 10.0 mi NNW 11.5 mph - N/A   Overcast
10:55 AM 36.3 °F 26.4 °F 34.3 °F 93% 29.83 in 10.0 mi North 17.3 mph - N/A   Overcast
11:15 AM 37.2 °F 29.1 °F 35.4 °F 93% 29.84 in 10.0 mi North 12.7 mph - N/A   Overcast
11:35 AM 37.4 °F 28.5 °F 35.6 °F 93% 29.84 in 10.0 mi NNW 15.0 mph - N/A   Overcast
11:55 AM 37.2 °F 28.7 °F 35.4 °F 93% 29.84 in 7.0 mi North 13.8 mph 20.7 mph N/A   Overcast
12:15 PM 36.9 °F 27.5 °F 34.9 °F 93% 29.84 in 10.0 mi NNW 16.1 mph 19.6 mph N/A   Overcast
12:35 PM 37.0 °F 27.4 °F 34.9 °F 92% 29.84 in 10.0 mi NNW 17.3 mph - N/A   Overcast
12:55 PM 37.4 °F 28.2 °F 34.2 °F 88% 29.84 in 10.0 mi NNW 16.1 mph - N/A   Overcast
1:15 PM 36.7 °F 26.9 °F 33.8 °F 89% 29.85 in 10.0 mi North 17.3 mph - N/A   Overcast
1:35 PM 37.2 °F 27.3 °F 34.0 °F 88% 29.85 in 10.0 mi North 18.4 mph - N/A   Overcast
1:55 PM 36.3 °F 26.1 °F 33.8 °F 91% 29.86 in 10.0 mi North 18.4 mph 21.9 mph N/A   Overcast
2:15 PM 36.0 °F 25.0 °F 33.6 °F 91% 29.87 in 10.0 mi NNW 20.7 mph 26.5 mph N/A   Overcast
2:35 PM 36.0 °F 25.3 °F 33.4 °F 91% 29.87 in 10.0 mi North 19.6 mph - N/A   Overcast
2:55 PM 36.3 °F 26.1 °F 32.7 °F 87% 29.88 in 10.0 mi North 18.4 mph 25.3 mph N/A   Overcast
3:15 PM 35.4 °F 25.3 °F 32.0 °F 87% 29.89 in 10.0 mi North 17.3 mph - N/A   Overcast
3:35 PM 35.1 °F 25.5 °F 32.0 °F 89% 29.90 in 10.0 mi North 15.0 mph 24.2 mph N/A   Overcast
4:15 PM 33.3 °F 22.8 °F 32.0 °F 95% 29.92 in 3.0 mi NNW 16.1 mph - N/A   Overcast
4:35 PM 32.4 °F 22.1 °F 32.0 °F 99% 29.93 in 1.0 mi NNW 15.0 mph - N/A   Overcast
4:55 PM 32.2 °F 22.7 °F 32.0 °F 99% 29.94 in 3.0 mi NNW 12.7 mph - N/A   Overcast
5:15 PM 32.2 °F 21.8 °F 32.0 °F 99% 29.95 in 1.2 mi NNW 15.0 mph - N/A   Overcast
5:35 PM 32.0 °F 21.2 °F 32.0 °F 100% 29.96 in 5.0 mi NNW 16.1 mph 23.0 mph N/A   Overcast
5:55 PM 32.0 °F 21.2 °F 31.6 °F 99% 29.96 in 5.0 mi NNW 16.1 mph - N/A   Overcast
6:15 PM 32.0 °F 22.5 °F 31.5 °F 98% 29.97 in 10.0 mi NNW 12.7 mph - N/A   Overcast
6:35 PM 32.0 °F 20.8 °F 31.1 °F 96% 29.98 in 10.0 mi NNW 17.3 mph - N/A   Overcast
6:55 PM 32.0 °F 22.5 °F 30.6 °F 94% 29.98 in 10.0 mi NNW 12.7 mph - N/A   Overcast
7:15 PM 32.0 °F 22.1 °F 30.2 °F 93% 29.99 in 10.0 mi NNW 13.8 mph - N/A   Overcast
7:35 PM 32.0 °F 21.6 °F 30.0 °F 92% 29.99 in 10.0 mi NNW 15.0 mph 20.7 mph N/A   Overcast
7:55 PM 32.0 °F 21.2 °F 29.8 °F 92% 29.98 in 10.0 mi NNW 16.1 mph - N/A   Overcast
8:15 PM 32.0 °F 22.5 °F 29.8 °F 92% 29.98 in 10.0 mi NNW 12.7 mph 20.7 mph N/A   Overcast
8:35 PM 31.8 °F 21.4 °F 30.0 °F 93% 29.98 in 10.0 mi NNW 15.0 mph - N/A   Overcast
8:55 PM 31.5 °F 21.8 °F 30.4 °F 96% 29.98 in 7.0 mi NNW 12.7 mph - N/A   Overcast
9:15 PM 31.6 °F 22.6 °F 30.7 °F 96% 29.98 in 7.0 mi NNW 11.5 mph - N/A   Overcast
9:35 PM 31.6 °F 22.1 °F 30.6 °F 96% 29.98 in 10.0 mi North 12.7 mph 18.4 mph N/A   Overcast
9:55 PM 31.5 °F 23.5 °F 30.7 °F 97% 29.98 in 5.0 mi North 9.2 mph - N/A   Overcast
10:15 PM 31.3 °F 22.1 °F 30.6 °F 97% 29.99 in 10.0 mi NNW 11.5 mph - N/A   Overcast
10:35 PM 31.5 °F 22.9 °F 30.2 °F 95% 29.98 in 10.0 mi NNW 10.4 mph - N/A   Overcast
10:55 PM 31.3 °F 25.6 °F 30.2 °F 96% 29.99 in 10.0 mi NW 5.8 mph - N/A   Overcast
11:15 PM 31.3 °F 25.6 °F 30.4 °F 96% 29.99 in 10.0 mi NW 5.8 mph - N/A   Overcast
11:35 PM 31.1 °F 23.1 °F 30.2 °F 96% 29.99 in 10.0 mi North 9.2 mph - N/A   Overcast
11:55 PM 31.1 °F 23.1 °F 29.1 °F 92% 29.98 in 10.0 mi North 9.2 mph - N/A   Overcast